Location: Unspecified
(0.0000°N, 0.0000°E)
Time: 06:37:48
(UTC+00:00)

Kosmos-648 - Pass Details

Date: 11 July 2022
Orbit: 1437 x 1489 km, 74.0° (Epoch: 16 August)

Event Time Altitude Azimuth Distance (km) Brightness Sun altitude
Rises 18:14:16 0° 12° (NNE) 4,601 ? -2.0°
Reaches altitude 10° 18:17:49 10° 24° (NNE) 3,623 ? -2.8°
Maximum altitude 18:24:52 27° 78° (ENE) 2,553 ? -4.5°
Drops below altitude 10° 18:31:51 10° 131° (SE) 3,616 ? -6.1°
Enters shadow 18:34:42 - 141° (SE) 4,406 ? -6.7°
